Weather History for FALE - August, 2013

Change the Weather History Date:

Thursday, August 8, 2013

  Actual Average Record
Temperature  
Mean Temperature 64 °F -  
Max Temperature 71 °F - - ()
Min Temperature 57 °F - - ()
Degree Days  
Heating Degree Days 1    
Growing Degree Days 14 (Base 50)    
Moisture  
Dew Point 56 °F    
Average Humidity 79    
Maximum Humidity 100    
Minimum Humidity 44    
Precipitation  
Precipitation 0.00 in - - ()
Sea Level Pressure  
Sea Level Pressure 29.95 in    
Wind  
Wind Speed 4 mph ()    
Max Wind Speed 13 mph    
Max Gust Speed -    
Visibility 7.4 miles    
Events Rain , Thunderstorm    
T = Trace of Precipitation, MM = Missing Value Source: Averaged Metar Reports

Daily Weather History Graph

Daily Weather History Graph

Search for Another Location

Airport or City:

Trip Planner

Search our weather history database for the weather conditions in past years. The results will help you decide how hot, cold, wet, or windy it might be!

Date:

Astronomy

Aug. 08, 2013 Rise Set
Actual Time 6:34 AM SAST 5:27 PM SAST
Civil Twilight 6:10 AM SAST 5:52 PM SAST
Nautical Twilight 5:41 AM SAST 6:20 PM SAST
Astronomical Twilight 5:13 AM SAST 6:48 PM SAST
Moon 7:07 AM SAST (8/8) 7:01 PM SAST (8/8)
Length of Visible Light 11h 42m
Length of Day
10h 52m
New Moon, 2% of the Moon is Illuminated
Aug 8
New Moon
Aug 14
First Quarter
Aug 21
Full
Aug 28
Last Quarter
Sep 5
New

Hourly Weather History & Observations

Time (SAST) Temp. Dew Point Humidity Pressure Visibility Wind Dir Wind Speed Gust Speed Precip Events Conditions
12:00 AM 62.6 °F 59.0 °F 88% 29.80 in 6.2 mi SSW 6.9 mph - N/A   Partly Cloudy
1:00 AM 62.6 °F 59.0 °F 88% 29.80 in - Variable 1.2 mph - N/A   Clear
2:00 AM 61 °F 57 °F 81% 29.82 in 12 mi Calm Calm - -  
2:00 AM 57.2 °F 55.4 °F 94% 29.80 in - Variable 1.2 mph - N/A   Clear
3:00 AM 55.4 °F 53.6 °F 94% 29.83 in 5.0 mi Variable 1.2 mph - N/A   Unknown
4:00 AM 55.4 °F 53.6 °F 94% 29.83 in 5.0 mi SW 3.5 mph - N/A   Unknown
5:00 AM 62 °F 55 °F 72% 29.86 in 12 mi SSW 8.1 mph - -   Clear
5:00 AM 53.6 °F 53.6 °F 100% 29.86 in - Variable 1.2 mph - N/A   Clear
6:00 AM 55.4 °F 53.6 °F 94% 29.89 in - Variable 3.5 mph - N/A   Clear
7:00 AM 53.6 °F 53.6 °F 100% 29.92 in 6.2 mi Variable 1.2 mph - N/A   Partly Cloudy
8:00 AM 60 °F 55 °F 79% 29.96 in 12 mi Calm Calm - -   Mostly Cloudy
8:00 AM 60.8 °F 57.2 °F 88% 29.95 in 6.2 mi Variable 1.2 mph - N/A   Mostly Cloudy
9:00 AM 64.4 °F 59.0 °F 83% 29.98 in 6.2 mi Variable 2.3 mph - N/A   Mostly Cloudy
10:00 AM 68.0 °F 60.8 °F 78% 29.98 in 6.2 mi South 6.9 mph - N/A   Mostly Cloudy
11:00 AM 68 °F 58 °F 62% 29.99 in 12 mi South 6.9 mph - -   Overcast
11:00 AM 68.0 °F 59.0 °F 73% 29.98 in 6.2 mi South 8.1 mph - N/A   Overcast
12:00 PM 68.0 °F 59.0 °F 73% 29.98 in 6.2 mi South 10.4 mph - N/A   Mostly Cloudy
1:00 PM 68.0 °F 57.2 °F 68% 29.95 in 6.2 mi South 12.7 mph - N/A   Mostly Cloudy
2:00 PM 69 °F 56 °F 53% 29.93 in 12 mi South 11.5 mph - -   Mostly Cloudy
2:00 PM 68.0 °F 55.4 °F 64% 29.92 in 6.2 mi SSE 9.2 mph - N/A   Mostly Cloudy
3:00 PM 68.0 °F 57.2 °F 68% 29.92 in 6.2 mi SSE 6.9 mph - N/A   Mostly Cloudy
4:00 PM 66.2 °F 51.8 °F 60% 29.98 in 6.2 mi South 6.9 mph - N/A   Overcast
5:00 PM 67 °F 50 °F 44% 29.99 in 12 mi South 8.1 mph - -   Overcast
5:00 PM 66.2 °F 50.0 °F 56% 29.98 in 6.2 mi South 5.8 mph - N/A   Overcast
6:00 PM 62.6 °F 55.4 °F 77% 29.98 in 6.2 mi SE 3.5 mph - N/A   Mostly Cloudy
7:00 PM 64.4 °F 55.4 °F 73% 30.04 in 6.2 mi SSE 5.8 mph - N/A   Mostly Cloudy
8:00 PM 62 °F - % 30.13 in 12 mi South 4.6 mph - -   Overcast
8:00 PM 62.6 °F 57.2 °F 82% 30.06 in 6.2 mi South 4.6 mph - N/A   Overcast
9:00 PM 59.0 °F 55.4 °F 88% 30.06 in 5.0 mi SSW 11.5 mph - N/A Rain Light Rain
10:00 PM 59.0 °F 57.2 °F 94% 30.09 in 5.6 mi SW 5.8 mph - N/A Rain Light Rain
11:00 PM 59.0 °F 57.2 °F 94% 30.12 in 3.1 mi Variable 5.8 mph - N/A Rain , Thunderstorm Thunderstorms and Rain